044  
ASUS44 KCRP 131310  
HRRCRP  
 
SOUTH TEXAS REGIONAL WEATHER ROUNDUP  
NATIONAL WEATHER SERVICE CORPUS CHRISTI TX  
700 AM CST FRI DEC 13 2019  
 
TXZ229>244-131400-   
..CORPUS CHRISTI AREA OBSERVATIONS
 
 
 
CITY SKY/WX TMP DP RH WIND PRES REMARKS  
CORPUS CHRISTI FOG 56 56 100 W5 30.00R VSB 1/8  
NAS CORPUS CHR FOG 56 56 100 W5 29.99R VSB 1/16  
ROCKPORT FOG 60 57 89 NW5 29.99R VSB 1/4  
KINGSVILLE NAS FOG 53 53 100 W3 30.00R VSB 1/4  
ALICE FOG 52 51 97 W5 30.00R VSB 1/2  

 
   
..VICTORIA AREA OBSERVATIONS
 
 
 
CITY SKY/WX TMP DP RH WIND PRES REMARKS  
PORT LAVACA CLOUDY 57 56 97 CALM 29.98F  
VICTORIA FOG 59 57 93 SW7 29.98S VSB 1/2  
BEEVILLE NOT AVBL  
PLEASANTON CLEAR 37 35 90 CALM 30.00F  
SAN ANTONIO PTCLDY 45 38 76 CALM 29.98F  

 
   
..LAREDO AREA OBSERVATIONS
 
 
 
CITY SKY/WX TMP DP RH WIND PRES REMARKS  
LAREDO CLEAR 44 42 93 CALM 30.00R  
COTULLA CLEAR 40 40 100 CALM 30.00F  
DEL RIO CLEAR 39 34 82 N3 30.01R  
MCALLEN CLEAR 49 47 93 CALM 30.00F  
HEBBRONVILLE CLEAR 45 44 95 CALM 30.00S  

 
   
..OTHER TEXAS OBSERVATIONS
 
 
 
CITY SKY/WX TMP DP RH WIND PRES REMARKS  
BROWNSVILLE FOG 50 49 96 SW3 30.00F VSB 1/2  
HOUSTON MOCLDY 54 50 86 NE3 29.98S  
COL. STATION CLOUDY 53 52 96 S5 29.96F  
AUSTIN PTCLDY 36 35 96 CALM 29.97R  
TEMPLE CLEAR 42 42 100 S9 29.94R  
WACO CLEAR 40 37 89 E5 29.93R  
FORT WORTH CLEAR 40 39 97 S3 29.88R  
WICHITA FALLS CLEAR 32 32 100 N6 29.90R  
LUBBOCK MOCLDY 38 27 64 W9 29.93F  
EL PASO PTCLDY 37 36 93 SW3 30.15R  

 
   
..MARINE OBSERVATIONS
 
 
 
STATION/POSITION TIME SKY/WX TEMP WIND PRES VSBY WAVE SWELL  
AIR SEA DIR/SP/G HT/PER HT/PER  
(UTC) (F) (DEG/KT/KT) (MB) (MI) (FT/S) (FT/S)  
PORT ARANSAS 1300 57 63 270/ 5/ 6 1015.3R  
BUOY 90 E PORT A 1250 71 73 120/ 12/ 14 1013.7F 5/ 7 3/ 7  
BUOY 45 SE BAFFI 1250 66 72 270/ 10/ 12 1015.0F 4/ 9 3/ 9  
BUOY 200 E PT IS 1250 75 78 250/ 12/ 14 1014.2R 4/ 7 3/ 7  
BUOY 15 E GALVES 1250 120/ 2/ 4 1016.0R 3/ 5 2/ 5  

 
 
 
CLICK HERE TO GO TO PREVIOUS BULLETINS.

The Nexlab TX Page Main Text Page